Regional Weather Roundup
Issued by NWS

Home | Current Version | Previous Version | Graphics & Text | Print | Product List | Glossary On
Versions: 1 2 3 4 5 6 7 8 9 10 11 12 13 14 15 16 17 18 19 20 21 22 23 24 25 26 27 28 29 30 31 32 33 34 35 36 37 38 39 40 41 42 43 44 45 46 47 48 49 50
000
ASUS43 KIND 290759
RWRIN

WEATHER ROUNDUP FOR INDIANA
NATIONAL WEATHER SERVICE INDIANAPOLIS IN
400 AM EDT MON AUG 29 2016

NOTE: "FAIR" INDICATES FEW OR NO CLOUDS BELOW 12,000 FEET WITH NO
SIGNIFICANT WEATHER AND/OR OBSTRUCTIONS TO VISIBILITY.

* - STATION DOES NOT REPORT WEATHER SUCH AS PRECIPITATION OR FOG.

+ - STATION NOT QUALITY CONTROLLED BY THE NATIONAL WEATHER SERVICE.
    USE DATA WITH CAUTION...ESPECIALLY DEWPOINT AND RELATIVE
    HUMIDITY OBSERVATIONS.

INZ001>003-010>013-019-020-290900-
NORTHWEST INDIANA

CITY           SKY/WX    TMP DP  RH WIND       PRES   REMARKS
KNOX *+          N/A     64  57  77 CALM      30.21S VSB 1
MONTICELLO +   CLOUDY    68  65  88 CALM      30.19S
RENSSELAER +   CLEAR     68  68 100 NE3       30.21R

$$

LMZ046-743>745-290900-
SOUTHERN LAKE MICHIGAN

STATION/POSITION TIME  TEMP    WIND        PRES    WAVE
                       AIR SEA DIR/SP/G            HT
                 (UTC) (F)     (DEG/KT/KT) (MB)    (FT)
BURNS HARBOR     0704   71      80/  3/  6 1023.0F
MICHIGAN CITY    0700   70      20/  4/  4   N/A
5NW MICH CITY    0700   72 75  140/  2/  4   N/A     2

$$

INZ004-005-014>016-021>024-290900-
NORTH CENTRAL INDIANA

CITY           SKY/WX    TMP DP  RH WIND       PRES   REMARKS
GOSHEN         FOG       66  64  93 NE3       30.21F VSB 1/4
PERU/GRISSOM   CLOUDY    69  69 100 N2        30.19R
SOUTH BEND     CLEAR     68  67  96 CALM      30.22F

$$

INZ006>009-017-018-025>027-290900-
NORTHEAST INDIANA

CITY           SKY/WX    TMP DP  RH WIND       PRES   REMARKS
ANGOLA *+      CLEAR     66  57  72 CALM      30.23R
FORT WAYNE     PTCLDY    68  65  90 NE3       30.21S

$$

INZ028-029-035-036-043>045-051>053-290900-
WEST CENTRAL INDIANA

CITY           SKY/WX    TMP DP  RH WIND       PRES   REMARKS
CRAWFORDSVL +  PTCLDY    68  68 100 N3        30.19F
GREENCASTLE +  CLEAR     70  70 100 CALM      30.18S
LAFAYETTE      LGT RAIN  72  68  87 SW6       30.17F
TERRE HAUTE    CLEAR     69  67  93 N3        30.17R

$$

INZ030>032-037>040-046>048-054>057-064-065-290900-
CENTRAL INDIANA

CITY           SKY/WX    TMP DP  RH WIND       PRES   REMARKS
INDIANAPOLIS   CLEAR     72  68  87 N3        30.17S
-EAGLE CREEK   CLEAR     71  68  90 N3        30.18R
KOKOMO *+      PTCLDY    66  66 100 CALM      30.20S
MT COMFORT *+  CLEAR     66  64  94 CALM      30.20R
SHELBYVILLE    CLEAR     70  66  87 CALM      30.18R

$$

INZ033-034-041-042-049-050-058-059-290900-
EAST CENTRAL INDIANA

CITY           SKY/WX    TMP DP  RH WIND       PRES   REMARKS
MUNCIE         CLEAR     69  68  96 E3        30.20R

$$

INZ060-061-067>069-081>083-085>088-290900-
SOUTHWEST INDIANA

CITY           SKY/WX    TMP DP  RH WIND       PRES   REMARKS
EVANSVILLE     PTCLDY    74  69  85 CALM      30.14R
HUNTINGBURG *+ MOCLDY    72  66  83 CALM      30.15R

$$

INZ062-063-066-070>080-084-089>092-290900-
SOUTH CENTRAL AND SOUTHEAST INDIANA

CITY           SKY/WX    TMP DP  RH WIND       PRES   REMARKS
BLOOMINGTON    MOCLDY    69  67  93 NW3       30.17R
MADISON *+     CLEAR     68  66  94 CALM      30.20R

$$





USA.gov is the U.S. government's official web portal to all federal, state and local government web resources and services.